FW4092 Weather Reports


time (UTC)temp
C
wind
direction
speed
KPH
gust
KPH
rain 1hr
cm
rain 24hr
cm
rain mn
cm
humidity
%
barometer
mb
20260508203242 22 299 11.3 24.1 0.00 0.00 0.00 24 1015.5
20260508202739 21 302 9.7 22.5 0.00 0.00 0.00 24 1015.6
20260508202258 22 331 11.3 25.7 0.00 0.00 0.00 24 1015.7
20260508202244 22 286 11.3 22.5 0.00 0.00 0.00 24 1015.6
20260508201218 21 0 12.9 25.7 0.00 0.00 0.00 24 1015.6
20260508200951 21 279 12.9 25.7 0.00 0.00 0.00 22 1015.7
20260508200451 22 281 11.3 24.1 0.00 0.00 0.00 22 1015.7
20260508195701 22 258 12.9 24.1 0.00 0.00 0.00 21 1015.8
20260508195154 22 267 9.7 29.0 0.00 0.00 0.00 22 1015.7
20260508194648 22 292 9.7 25.7 0.00 0.00 0.00 22 1015.6
20260508194142 21 261 9.7 20.9 0.00 0.00 0.00 20 1015.7
20260508193637 21 254 9.7 20.9 0.00 0.00 0.00 21 1015.6
20260508193129 21 298 12.9 29.0 0.00 0.00 0.00 22 1015.6
20260508192632 21 262 12.9 29.0 0.00 0.00 0.00 21 1015.5
20260508192130 21 256 9.7 24.1 0.00 0.00 0.00 23 1015.6
20260508191630 21 296 8.0 22.5 0.00 0.00 0.00 21 1015.7
20260508191131 20 255 8.0 19.3 0.00 0.00 0.00 22 1015.6
20260508190630 20 205 11.3 20.9 0.00 0.00 0.00 21 1015.6
20260508190424 20 255 9.7 20.9 0.00 0.00 0.00 21 1015.6
20260508185630 20 265 8.0 22.5 0.00 0.00 0.00 21 1015.7
20260508185133 20 259 9.7 22.5 0.00 0.00 0.00 23 1015.7
20260508184630 20 303 8.0 17.7 0.00 0.00 0.00 22 1015.6
20260508184130 20 308 8.0 16.1 0.00 0.00 0.00 24 1015.6
20260508183628 19 323 9.7 19.3 0.00 0.00 0.00 26 1015.8
20260508183415 18 295 9.7 20.9 0.00 0.00 0.00 26 1015.8
20260508182919 18 319 9.7 20.9 0.00 0.00 0.00 28 1015.8
20260508182351 17 298 8.0 19.3 0.00 0.00 0.00 29 1015.8
20260508181852 17 252 6.4 17.7 0.00 0.00 0.00 30 1015.9
20260508181128 17 294 6.4 17.7 0.00 0.00 0.00 31 1015.9
20260508180912 17 267 8.0 17.7 0.00 0.00 0.00 31 1015.8
20260508180356 17 324 8.0 16.1 0.00 0.00 0.00 31 1015.6
20260508175635 17 254 6.4 14.5 0.00 0.00 0.00 32 1015.6
20260508175411 17 283 8.0 14.5 0.00 0.00 0.00 32 1015.4
20260508174901 17 261 9.7 16.1 0.00 0.00 0.00 31 1015.4
20260508174127 17 304 8.0 19.3 0.00 0.00 0.00 31 1015.3
20260508173626 17 229 8.0 19.3 0.00 0.00 0.00 31 1015.4
20260508173412 18 285 6.4 12.9 0.00 0.00 0.00 31 1015.4
20260508172626 18 215 6.4 17.7 0.00 0.00 0.00 31 1015.5
20260508172124 18 255 6.4 17.7 0.00 0.00 0.00 33 1015.6
20260508171623 18 289 4.8 14.5 0.00 0.00 0.00 34 1015.6
20260508171122 18 32 3.2 12.9 0.00 0.00 0.00 33 1015.6
20260508170632 17 219 4.8 16.1 0.00 0.00 0.00 35 1015.5
20260508170127 17 325 3.2 16.1 0.00 0.00 0.00 36 1015.5
20260508165621 17 294 1.6 6.4 0.00 0.00 0.00 38 1015.5
20260508165419 17 327 3.2 9.7 0.00 0.00 0.00 36 1015.5
20260508164621 17 300 4.8 14.5 0.00 0.00 0.00 37 1015.5
20260508164120 17 333 3.2 14.5 0.00 0.00 0.00 39 1015.6
20260508163620 16 334 3.2 11.3 0.00 0.00 0.00 41 1015.6
20260508163120 16 302 3.2 11.3 0.00 0.00 0.00 41 1015.6
20260508162611 16 313 1.6 6.4 0.00 0.00 0.00 42 1015.7
20260508162356 16 220 1.6 6.4 0.00 0.00 0.00 42 1015.8
20260508161844 16 281 1.6 6.4 0.00 0.00 0.00 42 1015.8
20260508161054 16 350 1.6 6.4 0.00 0.00 0.00 42 1015.7
20260508160547 16 176 0.0 4.8 0.00 0.00 0.00 41 1015.6
20260508160328 16 105 1.6 4.8 0.00 0.00 0.00 42 1015.6
20260508155535 16 118 1.6 4.8 0.00 0.00 0.00 42 1015.6
20260508155030 15 108 1.6 6.4 0.00 0.00 0.00 43 1015.5
20260508154525 15 113 3.2 6.4 0.00 0.00 0.00 44 1015.5
20260508154021 14 139 1.6 6.4 0.00 0.00 0.00 44 1015.5
20260508153752 13 155 3.2 8.0 0.00 0.00 0.00 46 1015.5
20260508153037 12 150 3.2 8.0 0.00 0.00 0.00 47 1015.4
20260508153020 13 150 3.2 8.0 0.00 0.00 0.00 47 1015.5
20260508151952 12 158 3.2 8.0 0.00 0.00 0.00 48 1015.3
20260508151447 11 135 3.2 8.0 0.00 0.00 0.00 49 1015.3
20260508151232 11 180 3.2 8.0 0.00 0.00 0.00 49 1015.3
20260508150434 10 142 1.6 9.7 0.00 0.00 0.00 51 1015.2
20260508145932 10 147 1.6 9.7 0.00 0.00 0.00 52 1015.2
20260508145711 9 121 1.6 8.0 0.00 0.00 0.00 52 1015.2
20260508144918 9 150 3.2 9.7 0.00 0.00 0.00 53 1015.1
20260508144411 9 153 4.8 9.7 0.00 0.00 0.00 52 1015.2
20260508143909 8 138 4.8 14.5 0.00 0.00 0.00 53 1015.1
20260508143400 8 155 4.8 14.5 0.00 0.00 0.00 53 1015.1
20260508142854 8 140 6.4 14.5 0.00 0.00 0.00 55 1015.0
20260508142347 7 150 6.4 14.5 0.00 0.00 0.00 56 1015.0
20260508141842 7 134 6.4 12.9 0.00 0.00 0.00 58 1015.0
20260508141624 6 140 6.4 14.5 0.00 0.00 0.00 59 1015.0
20260508140829 6 159 4.8 14.5 0.00 0.00 0.00 59 1015.0
20260508140324 6 133 3.2 11.3 0.00 0.00 0.00 61 1015.0
20260508140058 6 182 1.6 11.3 0.00 0.00 0.00 61 1015.0
20260508135312 5 146 3.2 11.3 0.00 0.00 0.00 61 1015.0
20260508135034 5 126 3.2 11.3 0.00 0.00 0.00 61 1014.8
20260508134531 6 153 3.2 12.9 0.00 0.00 0.00 60 1014.8
20260508134309 6 153 3.2 12.9 0.00 0.00 0.00 60 1014.8
20260508133803 6 138 4.8 12.9 0.00 0.00 0.00 60 1014.8
20260508133542 6 138 4.8 11.3 0.00 0.00 0.00 60 1014.7
20260508133051 5 120 3.2 8.0 0.00 0.00 0.00 60 1014.6
20260508132308 5 138 3.2 8.0 0.00 0.00 0.00 62 1014.7
20260508132049 5 129 1.6 8.0 0.00 0.00 0.00 63 1014.7
20260508131307 5 131 0.0 4.8 0.00 0.00 0.00 62 1014.7
20260508131030 5 268 0.0 0.0 0.00 0.00 0.00 60 1014.7
20260508130804 5 268 0.0 0.0 0.00 0.00 0.00 60 1014.7
20260508130310 5 273 1.6 8.0 0.00 0.00 0.00 59 1014.8
20260508125827 7 55 1.6 8.0 0.00 0.00 0.00 56 1014.7
20260508125815 6 269 1.6 8.0 0.00 0.00 0.00 57 1014.6
20260508125024 7 129 3.2 8.0 0.00 0.00 0.00 57 1014.4
20260508124519 6 147 3.2 12.9 0.00 0.00 0.00 57 1014.4
20260508123807 6 144 3.2 12.9 0.00 0.00 0.00 58 1014.4
20260508123307 6 134 1.6 6.4 0.00 0.00 0.00 59 1014.5
20260508122814 6 138 0.0 4.8 0.00 0.00 0.00 60 1014.4
20260508122314 6 127 0.0 6.4 0.00 0.00 0.00 58 1014.4
20260508121815 6 127 1.6 6.4 0.00 0.00 0.00 58 1014.3
20260508121542 6 150 1.6 6.4 0.00 0.00 0.00 59 1014.3
20260508120823 6 144 1.6 9.7 0.00 0.00 0.00 59 1014.3
20260508120819 6 146 1.6 9.7 0.00 0.00 0.00 59 1014.3
20260508115756 6 154 0.0 4.8 0.00 0.00 0.00 59 1014.3
20260508115250 6 157 0.0 4.8 0.00 0.00 0.00 59 1014.3
20260508115024 6 199 0.0 1.6 0.00 0.00 0.00 59 1014.3
20260508114237 6 200 0.0 1.6 0.00 0.00 0.00 58 1014.3
20260508113731 6 215 0.0 0.0 0.00 0.00 0.00 57 1014.3
20260508113509 7 215 0.0 3.2 0.00 0.00 0.00 55 1014.3
20260508112715 7 215 0.0 3.2 0.00 0.00 0.00 54 1014.3
20260508112215 7 212 0.0 3.2 0.00 0.00 0.00 56 1014.2
20260508111715 7 215 0.0 3.2 0.00 0.00 0.00 56 1014.1
20260508111201 6 221 0.0 0.0 0.00 0.00 0.00 56 1014.1
20260508110928 6 221 0.0 1.6 0.00 0.00 0.00 55 1014.2
20260508110148 6 221 0.0 3.2 0.00 0.00 0.00 56 1014.1
20260508105641 6 221 0.0 3.2 0.00 0.00 0.00 57 1014.2
20260508105135 6 221 1.6 3.2 0.00 0.00 0.00 57 1014.1
20260508104629 6 221 1.6 3.2 0.00 0.00 0.00 57 1014.0
20260508104358 6 225 0.0 3.2 0.00 0.00 0.00 56 1014.1
20260508103619 6 220 0.0 3.2 0.00 0.00 0.00 56 1014.1
20260508103114 6 232 0.0 3.2 0.00 0.00 0.00 56 1014.1
20260508102612 6 235 0.0 1.6 0.00 0.00 0.00 56 1014.1
20260508102100 7 235 0.0 1.6 0.00 0.00 0.00 54 1014.1
20260508101559 7 234 0.0 4.8 0.00 0.00 0.00 54 1013.9
20260508101052 7 235 0.0 4.8 0.00 0.00 0.00 54 1013.9
20260508100542 7 204 0.0 3.2 0.00 0.00 0.00 54 1013.9
20260508100035 8 208 1.6 3.2 0.00 0.00 0.00 52 1013.9
20260508095529 8 117 1.6 3.2 0.00 0.00 0.00 52 1013.8
20260508095025 8 115 0.0 3.2 0.00 0.00 0.00 51 1013.9
20260508094516 9 144 0.0 3.2 0.00 0.00 0.00 50 1013.8
20260508094250 9 144 0.0 0.0 0.00 0.00 0.00 49 1013.8
20260508093509 10 144 0.0 0.0 0.00 0.00 0.00 49 1013.8
20260508092959 10 144 0.0 1.6 0.00 0.00 0.00 49 1013.8
20260508092454 10 144 0.0 1.6 0.00 0.00 0.00 48 1013.8
20260508091948 10 144 0.0 1.6 0.00 0.00 0.00 47 1013.8
20260508091441 11 140 0.0 1.6 0.00 0.00 0.00 46 1013.6
20260508091217 11 140 0.0 0.0 0.00 0.00 0.00 45 1013.8
20260508090432 11 141 0.0 0.0 0.00 0.00 0.00 45 1013.6
20260508085923 11 141 0.0 0.0 0.00 0.00 0.00 45 1013.6
20260508085421 11 141 0.0 0.0 0.00 0.00 0.00 45 1013.6
20260508084916 11 141 0.0 0.0 0.00 0.00 0.00 45 1013.6
20260508084410 11 141 0.0 0.0 0.00 0.00 0.00 45 1013.6
20260508083905 11 141 0.0 0.0 0.00 0.00 0.00 45 1013.6
20260508083355 11 141 0.0 1.6 0.00 0.00 0.00 45 1013.8
20260508082847 11 141 0.0 1.6 0.00 0.00 0.00 45 1013.8
20260508082341 11 140 0.0 1.6 0.00 0.00 0.00 45 1013.8
20260508081838 12 141 0.0 1.6 0.00 0.00 0.00 45 1013.9
20260508081332 12 140 0.0 3.2 0.00 0.00 0.00 44 1013.9
20260508080825 12 141 1.6 4.8 0.00 0.00 0.00 44 1013.8
20260508080317 12 141 1.6 4.8 0.00 0.00 0.00 44 1013.9
20260508075818 12 147 1.6 4.8 0.00 0.00 0.00 45 1013.9
20260508075307 12 150 1.6 4.8 0.00 0.00 0.00 45 1013.8
20260508074749 11 168 0.0 3.2 0.00 0.00 0.00 45 1013.8
20260508074244 12 169 1.6 6.4 0.00 0.00 0.00 45 1013.8
20260508073740 12 169 1.6 6.4 0.00 0.00 0.00 44 1013.8
20260508073234 12 147 0.0 4.8 0.00 0.00 0.00 44 1013.6
20260508072735 12 147 1.6 4.8 0.00 0.00 0.00 44 1013.8
20260508072246 12 146 1.6 4.8 0.00 0.00 0.00 43 1013.6
20260508071747 13 146 1.6 4.8 0.00 0.00 0.00 42 1013.6
20260508071245 13 148 0.0 4.8 0.00 0.00 0.00 41 1013.8
20260508070744 13 259 0.0 0.0 0.00 0.00 0.00 40 1013.6
20260508070240 13 257 0.0 0.0 0.00 0.00 0.00 39 1013.6
20260508065738 14 257 0.0 4.8 0.00 0.00 0.00 38 1013.6
20260508065234 14 257 0.0 4.8 0.00 0.00 0.00 38 1013.6
20260508065011 14 257 0.0 4.8 0.00 0.00 0.00 37 1013.5
20260508064232 15 259 1.6 4.8 0.00 0.00 0.00 37 1013.5
20260508063732 15 262 1.6 6.4 0.00 0.00 0.00 36 1013.6
20260508063229 15 279 4.8 14.5 0.00 0.00 0.00 36 1013.5
20260508062730 16 283 6.4 16.1 0.00 0.00 0.00 35 1013.5
20260508062232 16 288 8.0 24.1 0.00 0.00 0.00 34 1013.4
20260508061731 16 215 8.0 24.1 0.00 0.00 0.00 35 1013.4
20260508061231 16 219 8.0 20.9 0.00 0.00 0.00 35 1013.4
20260508060734 16 297 8.0 17.7 0.00 0.00 0.00 36 1013.4
20260508060730 16 277 6.4 16.1 0.00 0.00 0.00 36 1013.4
20260508060227 16 269 9.7 19.3 0.00 0.00 0.00 36 1013.4
20260508055226 16 306 8.0 19.3 0.00 0.00 0.00 36 1013.3
20260508054719 15 253 8.0 16.1 0.00 0.00 0.00 37 1013.3
20260508054212 15 273 8.0 16.1 0.00 0.00 0.00 37 1013.4
20260508053927 15 265 4.8 14.5 0.00 0.00 0.00 38 1013.4
20260508053200 14 272 3.2 12.9 0.00 0.00 0.00 39 1013.4
20260508052653 15 254 1.6 4.8 0.00 0.00 0.00 39 1013.3
20260508052148 15 281 1.6 4.8 0.00 0.00 0.00 40 1013.3
20260508051641 15 249 1.6 6.4 0.00 0.00 0.00 40 1013.3
20260508051135 15 321 1.6 6.4 0.00 0.00 0.00 40 1013.2
20260508050629 16 326 3.2 12.9 0.00 0.00 0.00 40 1013.2
20260508050123 16 328 4.8 12.9 0.00 0.00 0.00 38 1013.2
20260508045620 16 337 3.2 9.7 0.00 0.00 0.00 37 1013.2
20260508045111 16 290 3.2 8.0 0.00 0.00 0.00 35 1013.3
20260508044829 16 309 4.8 12.9 0.00 0.00 0.00 34 1013.3
20260508044100 16 310 4.8 12.9 0.00 0.00 0.00 33 1013.3
20260508043553 17 334 6.4 17.7 0.00 0.00 0.00 32 1013.2
20260508043047 17 347 6.4 17.7 0.00 0.00 0.00 31 1013.3
20260508042818 17 342 6.4 17.7 0.00 0.00 0.00 29 1013.2
20260508042314 17 289 8.0 19.3 0.00 0.00 0.00 29 1013.2
20260508041530 17 309 9.7 19.3 0.00 0.00 0.00 28 1013.2
20260508041024 17 292 9.7 19.3 0.00 0.00 0.00 27 1013.2
20260508040749 17 242 9.7 20.9 0.00 0.00 0.00 27 1013.0
20260508040013 18 313 9.7 20.9 0.00 0.00 0.00 26 1013.0
20260508035237 18 279 9.7 19.3 0.00 0.00 0.00 26 1012.8
20260508035233 18 312 9.7 25.7 0.00 0.00 0.00 26 1012.8
20260508033947 17 286 8.0 19.3 0.00 0.00 0.00 26 1012.8
20260508033441 17 279 6.4 12.9 0.00 0.00 0.00 27 1012.8
20260508032935 17 271 4.8 11.3 0.00 0.00 0.00 27 1012.8
20260508032430 18 304 4.8 12.9 0.00 0.00 0.00 26 1012.8
20260508031923 18 286 4.8 16.1 0.00 0.00 0.00 26 1012.8
20260508031417 19 293 6.4 16.1 0.00 0.00 0.00 25 1012.7
20260508030912 19 300 8.0 16.1 0.00 0.00 0.00 25 1012.7
20260508030408 19 266 9.7 17.7 0.00 0.00 0.00 24 1012.7
20260508025859 20 303 9.7 19.3 0.00 0.00 0.00 24 1012.6
20260508025630 20 311 9.7 19.3 0.00 0.00 0.00 24 1012.6
20260508024847 20 304 11.3 19.3 0.00 0.00 0.00 24 1012.4
20260508024400 20 287 11.3 20.9 0.00 0.00 0.00 24 1012.3
20260508023329 21 331 11.3 22.5 0.00 0.00 0.00 23 1012.3
20260508022823 21 241 9.7 20.9 0.00 0.00 0.00 24 1012.2
20260508022317 21 272 9.7 22.5 0.00 0.00 0.00 24 1012.2
20260508021811 21 219 11.3 22.5 0.00 0.00 0.00 23 1012.2
20260508021316 22 251 11.3 25.7 0.00 0.00 0.00 24 1012.2
20260508020812 22 321 11.3 25.7 0.00 0.00 0.00 24 1012.2
20260508020311 22 275 11.3 22.5 0.00 0.00 0.00 23 1012.3
20260508015811 22 269 12.9 22.5 0.00 0.00 0.00 24 1012.2
20260508015311 22 292 12.9 27.4 0.00 0.00 0.00 23 1012.3
20260508014812 22 279 12.9 27.4 0.00 0.00 0.00 23 1012.3
20260508014538 22 252 12.9 24.1 0.00 0.00 0.00 24 1012.4
20260508014050 23 269 12.9 27.4 0.00 0.00 0.00 23 1012.4
20260508013311 23 248 14.5 29.0 0.00 0.00 0.00 24 1012.3
20260508012811 23 261 14.5 29.0 0.00 0.00 0.00 22 1012.4
20260508012311 23 255 12.9 22.5 0.00 0.00 0.00 24 1012.3
20260508011811 23 281 12.9 25.7 0.00 0.00 0.00 24 1012.4
20260508011310 23 267 14.5 29.0 0.00 0.00 0.00 23 1012.4
20260508010810 23 336 14.5 29.0 0.00 0.00 0.00 21 1012.3
20260508010309 23 223 14.5 24.1 0.00 0.00 0.00 23 1012.4
20260508005809 23 301 14.5 27.4 0.00 0.00 0.00 21 1012.3
20260508005550 23 300 14.5 33.8 0.00 0.00 0.00 21 1012.3
20260508004819 23 292 16.1 37.0 0.00 0.00 0.00 20 1012.3
20260508004318 24 250 14.5 37.0 0.00 0.00 0.00 20 1012.2
20260508003816 24 269 12.9 29.0 0.00 0.00 0.00 19 1012.2
20260508003344 24 282 12.9 27.4 0.00 0.00 0.00 19 1012.1
20260508003340 24 279 14.5 27.4 0.00 0.00 0.00 19 1012.1
20260508002301 24 254 14.5 32.2 0.00 0.00 0.00 20 1012.0
20260508001815 24 246 16.1 32.2 0.00 0.00 0.00 20 1012.0
20260508001334 25 263 14.5 29.0 0.00 0.00 0.00 19 1011.9
20260508001329 24 234 14.5 29.0 0.00 0.00 0.00 19 1012.0
20260508001042 24 316 16.1 32.2 0.00 0.00 0.00 20 1011.9
20260507235756 24 265 16.1 32.2 0.00 0.00 0.00 19 1011.9
20260507235257 25 326 14.5 35.4 0.00 0.00 0.00 19 1011.9
20260507234834 25 293 14.5 35.4 0.00 0.00 0.00 21 1011.8
20260507234820 25 296 14.5 35.4 0.00 0.00 0.00 19 1011.8
20260507233755 25 288 14.5 35.4 0.00 0.00 0.00 19 1011.8
20260507233311 25 254 14.5 27.4 0.00 0.00 0.00 18 1011.9
20260507232758 25 267 16.1 32.2 0.00 0.00 0.00 19 1011.9
20260507232255 25 303 16.1 32.2 0.00 0.00 0.00 18 1011.9
20260507231754 25 283 17.7 32.2 0.00 0.00 0.00 19 1011.8
20260507231248 25 294 16.1 32.2 0.00 0.00 0.00 19 1011.9
20260507230742 25 236 16.1 30.6 0.00 0.00 0.00 19 1011.9
20260507230236 24 314 17.7 29.0 0.00 0.00 0.00 20 1011.9
20260507225730 25 269 17.7 29.0 0.00 0.00 0.00 19 1012.0
20260507225224 25 284 16.1 29.0 0.00 0.00 0.00 20 1012.2
20260507224718 25 298 16.1 30.6 0.00 0.00 0.00 19 1012.2
20260507224213 25 241 16.1 30.6 0.00 0.00 0.00 19 1012.2
20260507223709 25 276 16.1 32.2 0.00 0.00 0.00 19 1012.3
20260507223200 25 267 16.1 32.2 0.00 0.00 0.00 19 1012.4
20260507222654 25 252 14.5 27.4 0.00 0.00 0.00 20 1012.4
20260507222148 25 338 14.5 25.7 0.00 0.00 0.00 21 1012.6
20260507221642 25 305 12.9 24.1 0.00 0.00 0.00 21 1012.6
20260507221138 25 348 11.3 24.1 0.00 0.00 0.00 22 1012.7
20260507220630 25 289 11.3 24.1 0.00 0.00 0.00 22 1012.6
20260507220125 25 339 12.9 24.1 0.00 0.00 0.00 22 1012.7
20260507215618 25 239 12.9 24.1 0.00 0.00 0.00 21 1012.7
20260507215112 25 345 12.9 25.7 0.00 0.00 0.00 23 1012.7
20260507214609 25 247 12.9 25.7 0.00 0.00 0.00 22 1012.7
20260507214100 25 350 11.3 25.7 0.00 0.00 0.00 22 1012.8
20260507213555 25 288 11.3 25.7 0.00 0.00 0.00 23 1012.8
20260507213048 25 244 9.7 20.9 0.00 0.00 0.00 22 1012.7
20260507212543 25 281 9.7 20.9 0.00 0.00 0.00 25 1012.8
20260507212035 25 350 12.9 25.7 0.00 0.00 0.00 24 1012.8
20260507211531 25 284 11.3 24.1 0.00 0.00 0.00 25 1012.8
20260507211027 25 355 9.7 20.9 0.00 0.00 0.00 25 1012.8
20260507210522 25 286 9.7 17.7 0.00 0.00 0.00 26 1012.9
20260507210247 25 340 9.7 22.5 0.00 0.00 0.00 25 1013.0
20260507205509 25 313 11.3 22.5 0.00 0.00 0.00 22 1013.0
20260507205232 25 290 9.7 22.5 0.00 0.00 0.00 21 1013.1
20260507204454 25 325 9.7 22.5 0.00 0.00 0.00 21 1013.2
20260507204209 24 324 11.3 27.4 0.00 0.00 0.00 21 1013.2
20260507203442 24 351 11.3 27.4 0.00 0.00 0.00 20 1013.2